カタログに戻る

STARLINK-5830

運用中通信VLEO
NORAD 57065·PAYLOAD·🇺🇸 United States

打ち上げ Jun 22, 2023 から Vandenberg Space Force Base

Loading…

次のパス (今後24時間)

TLE

最新Source: CelesTrak SupGP

元期: Sep 14, 2026, 21:59 UTC

1 57065C 23088T   26257.91645833 -.00021276  00000+0 -77084-3 0  2570
2 57065  43.0000 125.4553 0001106 265.1873  12.8776 15.27580421    14

AllMySatでSTARLINK-5830をリアルタイム追跡

Download on the App Store